Weather History for Pueblo, CO

Change the Weather History Date:

Sunday, May 19, 2013

  Actual Average Record
Temperature  
Mean Temperature 65 °F 61 °F  
Max Temperature 79 °F 78 °F 98 °F (1974)
Min Temperature 51 °F 45 °F 32 °F (1971)
Degree Days  
Heating Degree Days 0 5  
Month to date heating degree days 169 133  
Since 1 July heating degree days 5682 5573  
Cooling Degree Days 0 1  
Month to date cooling degree days 31 10  
Year to date cooling degree days 32 12  
Growing Degree Days 16 (Base 50)    
Moisture  
Dew Point 27 °F    
Average Humidity 30    
Maximum Humidity 50    
Minimum Humidity 10    
Precipitation  
Precipitation 0.00 in 0.05 in 0.89 in (1988)
Month to date precipitation 0.68 0.93  
Year to date precipitation 1.88 3.91  
Snow  
Snow 0.00 in 0.00 in T in (1915)
Month to date snowfall 0.6 0.5  
Since 1 July snowfall 24.4 31.8  
Snow Depth 0.00 in    
Sea Level Pressure  
Sea Level Pressure 29.68 in    
Wind  
Wind Speed 10 mph (NW)    
Max Wind Speed 29 mph    
Max Gust Speed 38 mph    
Visibility 10 miles    
Events      
T = Trace of Precipitation, MM = Missing Value Source: NWS Daily Summary

Daily Weather History Graph

Daily Weather History Graph

Search for Another Location

Airport:

Trip Planner

Search our weather history database for the weather conditions in past years. The results will help you decide how hot, cold, wet, or windy it might be!

Date:

Astronomy

May. 19, 2013 Rise Set
Actual Time 5:43 AM MDT 8:05 PM MDT
Civil Twilight 5:13 AM MDT 8:36 PM MDT
Nautical Twilight 4:36 AM MDT 9:13 PM MDT
Astronomical Twilight 3:55 AM MDT 9:54 PM MDT
Moon 2:17 PM MDT (5/19) 2:03 AM MDT (5/19)
Length of Visible Light 15h 22m
Length of Day
14h 22m
Waxing Gibbous, 66% of the Moon is Illuminated
May 19
Waxing Gibbous
May 24
Full
May 31
Last Quarter
Jun 8
New
Jun 16
First Quarter

Hourly Weather History & Observations

Time (MDT) Temp. Dew Point Humidity Pressure Visibility Wind Dir Wind Speed Gust Speed Precip Events Conditions
12:53 AM 61.0 °F 36.0 °F 39% 29.67 in 10.0 mi North 9.2 mph - N/A   Clear
1:53 AM 57.9 °F 36.0 °F 44% 29.68 in 10.0 mi NNW 8.1 mph - N/A   Clear
2:53 AM 53.1 °F 34.0 °F 48% 29.68 in 10.0 mi Variable 3.5 mph - N/A   Clear
3:53 AM 55.0 °F 35.1 °F 47% 29.67 in 10.0 mi North 10.4 mph - N/A   Scattered Clouds
4:53 AM 57.0 °F 35.1 °F 44% 29.66 in 10.0 mi NE 8.1 mph - N/A   Scattered Clouds
5:53 AM 53.6 °F 35.6 °F 51% 29.84 in 10.0 mi West 6.9 mph - N/A   Overcast
6:53 AM 54.0 °F 35.1 °F 49% 29.70 in 10.0 mi Calm Calm - N/A   Partly Cloudy
7:53 AM 60.1 °F 32.0 °F 35% 29.69 in 10.0 mi Calm Calm - N/A   Clear
8:53 AM 63.0 °F 30.0 °F 29% 29.68 in 10.0 mi Variable 6.9 mph - N/A   Clear
9:53 AM 69.1 °F 24.1 °F 18% 29.64 in 10.0 mi West 11.5 mph 23.0 mph N/A   Clear
10:53 AM 71.1 °F 23.0 °F 16% 29.64 in 10.0 mi West 10.4 mph 25.3 mph N/A   Clear
11:53 AM 73.0 °F 19.9 °F 14% 29.61 in 10.0 mi West 13.8 mph 25.3 mph N/A   Partly Cloudy
12:53 PM 73.4 °F 19.4 °F 13% 29.74 in 10.0 mi WSW 12.7 mph 27.6 mph N/A   Clear
1:09 PM 73.4 °F 24.8 °F 16% 29.74 in 10.0 mi South 19.6 mph 25.3 mph N/A   Scattered Clouds
1:53 PM 75.2 °F 15.8 °F 11% 29.73 in 10.0 mi West 17.3 mph 29.9 mph N/A   Scattered Clouds
2:53 PM 78.1 °F 17.1 °F 10% 29.56 in 10.0 mi West 21.9 mph 25.3 mph N/A   Clear
3:53 PM 75.9 °F 17.1 °F 11% 29.55 in 10.0 mi WNW 17.3 mph 29.9 mph N/A   Mostly Cloudy
4:53 PM 75.0 °F 18.0 °F 12% 29.56 in 10.0 mi West 24.2 mph 35.7 mph N/A   Clear
5:53 PM 73.9 °F 14.0 °F 10% 29.58 in 10.0 mi WNW 20.7 mph 25.3 mph N/A   Clear
6:34 PM 71.6 °F 24.8 °F 17% 29.74 in 10.0 mi NNW 17.3 mph 24.2 mph N/A   Clear
6:53 PM 70.0 °F 21.9 °F 16% 29.61 in 10.0 mi NNW 17.3 mph 29.9 mph N/A   Clear
7:53 PM 68.0 °F 23.0 °F 18% 29.64 in 10.0 mi NNW 10.4 mph - N/A   Partly Cloudy
8:53 PM 63.0 °F 34.0 °F 34% 29.69 in 10.0 mi NE 9.2 mph - N/A   Mostly Cloudy
9:53 PM 60.8 °F 35.6 °F 39% 29.87 in 10.0 mi SE 6.9 mph - N/A   Scattered Clouds
10:53 PM 55.0 °F 32.0 °F 42% 29.74 in 10.0 mi ENE 3.5 mph - N/A   Clear
11:53 PM 52.0 °F 33.1 °F 49% 29.74 in 10.0 mi NE 8.1 mph - N/A   Clear